Iskenderun, Turkey

1:11 PM +03 on January 19, 2018 (GMT +0300)
Iskenderun

Weather History for LTAK - March, 2014

Change the Weather History Date:

Sunday, March 9, 2014

  Actual Average Record
Temperature  
Mean Temperature 71 °F -  
Max Temperature 77 °F - - ()
Min Temperature 63 °F - - ()
Cooling Degree Days 6    
Growing Degree Days 21 (Base 50)    
Moisture  
Dew Point 50 °F    
Average Humidity 42    
Maximum Humidity 80    
Minimum Humidity 19    
Precipitation  
Precipitation 0.01 in - - ()
Sea Level Pressure  
Sea Level Pressure 29.86 in    
Wind  
Wind Speed 6 mph ()    
Max Wind Speed 13 mph    
Max Gust Speed -    
Visibility 8.5 miles    
Events Rain    
T = Trace of Precipitation, MM = Missing Value Source: Averaged Metar Reports

Daily Weather History Graph

Daily Weather History Graph

Search for Another Location

Airport or City:

Trip Planner

Search our weather history database for the weather conditions in past years. The results will help you decide how hot, cold, wet, or windy it might be!

Date:

Astronomy

Mar. 09, 2014 Rise Set
Actual Time 5:55 AM EET 5:37 PM EET
Civil Twilight 5:29 AM EET 6:02 PM EET
Nautical Twilight 4:59 AM EET 6:32 PM EET
Astronomical Twilight 4:29 AM EET 7:02 PM EET
Moon 11:19 AM EET (3/9) 12:57 AM EET (3/9)
Length of Visible Light 12h 33m
Length of Day
11h 41m
First Quarter, 58% of the Moon is Illuminated
Mar 9
First Quarter
Mar 16
Full
Mar 24
Last Quarter
Mar 30
New
Apr 7
First Quarter

Hourly Weather History & Observations

Time (EET) Temp. Dew Point Humidity Pressure Visibility Wind Dir Wind Speed Gust Speed Precip Events Conditions
12:00 AM 73 °F 44 °F 24% 29.91 in 9 mi West 8.1 mph - -   Partly Cloudy
1:00 AM 76 °F 44 °F 21% 29.91 in 9 mi SE 12.7 mph - -   Partly Cloudy
2:00 AM 77 °F 43 °F 19% 29.89 in 9 mi SSE 10.4 mph - -   Partly Cloudy
3:00 AM 76 °F 44 °F 21% 29.87 in 9 mi SSE 9.2 mph - -   Partly Cloudy
4:00 AM 75 °F 44 °F 22% 29.85 in 9 mi SSW 5.8 mph - -   Partly Cloudy
5:00 AM 74 °F 44 °F 24% 29.86 in 9 mi ENE 3.5 mph - -   Partly Cloudy
6:00 AM 72 °F 46 °F 28% 29.86 in 9 mi WSW 4.6 mph - -   Partly Cloudy
7:00 AM 73 °F 45 °F 25% 29.86 in 9 mi WSW 5.8 mph - -   Partly Cloudy
8:00 AM 76 °F 45 °F 23% 29.86 in 9 mi SE 6.9 mph - -   Partly Cloudy
9:00 AM 76 °F 48 °F 27% 29.85 in 9 mi WNW 6.9 mph - -   Partly Cloudy
10:00 AM 76 °F 45 °F 23% 29.84 in 9 mi WNW 5.8 mph - -   Partly Cloudy
11:00 AM 75 °F 44 °F 23% 29.84 in 9 mi NNW 8.1 mph - -   Overcast
12:00 PM 72 °F 52 °F 38% 29.91 in 9 mi West 11.5 mph - -   Overcast
1:00 PM 72 °F 53 °F 41% 29.91 in 9 mi ENE 2.3 mph - -   Partly Cloudy
2:00 PM 66 °F 57 °F 65% 29.83 in 9 mi NNE 11.5 mph - -   Partly Cloudy
3:00 PM 74 °F 50 °F 32% 29.80 in 9 mi South 2.3 mph - -   Partly Cloudy
4:00 PM 68 °F 57 °F 60% 29.78 in 9 mi NW 9.2 mph - -   Partly Cloudy
5:00 PM 67 °F 57 °F 63% 29.80 in 9 mi WSW 5.8 mph - -   Partly Cloudy
6:00 PM 66 °F 57 °F 66% 29.83 in 9 mi SW 2.3 mph - -   Partly Cloudy
7:00 PM 65 °F 58 °F 70% 29.83 in 9 mi West 5.8 mph - -   Partly Cloudy
8:00 PM 66 °F 56 °F 63% 29.87 in 6 mi WSW 6.9 mph - - Rain Light Rain Showers
9:00 PM 66 °F 58 °F 68% 29.86 in 6 mi SW 1.2 mph - - Rain Light Rain Showers
10:00 PM 65 °F 58 °F 71% 29.86 in 6 mi SE 1.2 mph - - Rain Light Rain Showers
11:00 PM 63 °F 58 °F 80% 29.85 in 6 mi NE 2.3 mph - - Rain Light Rain Showers